{"data":{"norad_id":49761,"epoch":"2026-05-25T01:34:25.287744Z","epoch_age_seconds":62647,"freshness":"FRESH","line1":"1 49761U 21115AP  26145.06557046 -.00000039  00000+0  15614-4 0  9991","line2":"2 49761  53.2136 156.2555 0001152  76.6085 283.5036 15.08834551247201","mean_motion":15.08834551,"eccentricity":0.0001152,"inclination_deg":53.2136,"raan_deg":156.2555,"arg_perigee_deg":76.6085,"mean_anomaly_deg":283.5036,"bstar":1.5614e-5,"rev_number":24720,"period_min":95.437899340628,"perigee_km":538.9631026878,"apogee_km":540.55698616684,"semimajor_km":6917.8970444273,"source":"CELESTRAK","updated_at":"2026-05-25T13:38:16.839578Z"}}